• In Germany
  • List of Countries
  • For 7 days
  • Water Temperature
  • Satellite Maps
  • Weather Map
  • Weather Widgets
  • user-avatar
    Login

    Hourly Weather Pabna

    Today, 27 May, Sunday

    Time Temperature Precipitation Wind Pressure Humidity
    00:00 +33°C° 0 mm 5 mps 751 mmHg 69%
    01:00 +33°C° 0 mm 4 mps 751 mmHg 72%
    02:00 +32°C° 0 mm 4 mps 751 mmHg 74%
    03:00 +32°C° 0 mm 4 mps 750 mmHg 76%
    04:00 +32°C° 0 mm 4 mps 751 mmHg 77%
    05:00 +32°C° 0 mm 4 mps 751 mmHg 78%
    06:00 +30°C° 0 mm 4 mps 751 mmHg 79%
    07:00 +33°C° 0 mm 4 mps 751 mmHg 73%
    08:00 +34°C° 0 mm 4 mps 752 mmHg 67%
    09:00 +36°C° 0 mm 4 mps 752 mmHg 60%
    10:00 +37°C° 0 mm 4 mps 752 mmHg 55%
    11:00 +40°C° 0 mm 4 mps 751 mmHg 50%
    12:00 +41°C° 0 mm 4 mps 751 mmHg 45%
    13:00 +40°C° 0 mm 3 mps 750 mmHg 43%
    14:00 +40°C° 0 mm 3 mps 749 mmHg 42%
    15:00 +42°C° 0 mm 3 mps 748 mmHg 40%
    16:00 +42°C° 0 mm 3 mps 748 mmHg 41%
    17:00 +40°C° 0 mm 3 mps 748 mmHg 41%
    18:00 +40°C° 0 mm 3 mps 747 mmHg 41%
    19:00 +40°C° 0.2 mm 5 mps 748 mmHg 47%
    20:00 +38°C° 0.2 mm 6 mps 748 mmHg 52%
    21:00 +36°C° 0.2 mm 7 mps 749 mmHg 57%
    22:00 +35°C° 0.1 mm 7 mps 749 mmHg 59%
    23:00 +34°C° 0.1 mm 6 mps 749 mmHg 61%

    Tomorrow, 28 May, Monday

    Time Temperature Precipitation Wind Pressure Humidity
    00:00 +34°C° 0.1 mm 5 mps 749 mmHg 62%
    01:00 +33°C° 0 mm 4 mps 749 mmHg 65%
    02:00 +33°C° 0 mm 3 mps 749 mmHg 67%
    03:00 +31°C° 0 mm 3 mps 749 mmHg 70%
    04:00 +31°C° 0 mm 2 mps 749 mmHg 72%
    05:00 +31°C° 0 mm 2 mps 749 mmHg 73%
    06:00 +31°C° 0 mm 2 mps 750 mmHg 75%
    07:00 +32°C° 0.2 mm 2 mps 750 mmHg 69%
    08:00 +34°C° 0.2 mm 2 mps 750 mmHg 64%
    09:00 +35°C° 0.2 mm 3 mps 751 mmHg 58%
    10:00 +37°C° 0 mm 3 mps 750 mmHg 53%
    11:00 +38°C° 0 mm 3 mps 750 mmHg 47%
    12:00 +41°C° 0 mm 4 mps 749 mmHg 41%
    13:00 +40°C° 0 mm 3 mps 748 mmHg 39%
    14:00 +42°C° 0 mm 3 mps 747 mmHg 37%
    15:00 +43°C° 0 mm 3 mps 747 mmHg 34%
    16:00 +42°C° 0 mm 3 mps 746 mmHg 36%
    17:00 +42°C° 0 mm 4 mps 745 mmHg 37%
    18:00 +41°C° 0 mm 5 mps 745 mmHg 38%
    19:00 +40°C° 0 mm 5 mps 746 mmHg 41%
    20:00 +39°C° 0 mm 5 mps 746 mmHg 44%
    21:00 +38°C° 0 mm 6 mps 747 mmHg 47%
    22:00 +36°C° 0.7 mm 5 mps 747 mmHg 52%
    23:00 +35°C° 0.7 mm 4 mps 748 mmHg 57%

    Day after tomorrow, 29 May, Tuesday

    Time Temperature Precipitation Wind Pressure Humidity
    00:00 +33°C° 0.7 mm 4 mps 748 mmHg 62%
    01:00 +33°C° 0.3 mm 3 mps 748 mmHg 65%
    02:00 +31°C° 0.3 mm 3 mps 748 mmHg 68%
    03:00 +31°C° 0.3 mm 2 mps 747 mmHg 70%
    04:00 +31°C° 0 mm 2 mps 748 mmHg 71%
    05:00 +31°C° 0 mm 2 mps 748 mmHg 72%
    06:00 +31°C° 0 mm 2 mps 748 mmHg 73%
    07:00 +33°C° 0.1 mm 3 mps 748 mmHg 66%
    08:00 +35°C° 0.1 mm 3 mps 749 mmHg 60%
    09:00 +36°C° 0.1 mm 3 mps 749 mmHg 54%
    10:00 +37°C° 0 mm 3 mps 749 mmHg 50%
    11:00 +38°C° 0 mm 3 mps 748 mmHg 45%
    12:00 +40°C° 0 mm 3 mps 748 mmHg 41%
    13:00 +40°C° 0 mm 3 mps 747 mmHg 40%
    14:00 +40°C° 0 mm 3 mps 746 mmHg 40%
    15:00 +40°C° 0 mm 2 mps 745 mmHg 39%
    16:00 +40°C° 0 mm 3 mps 745 mmHg 41%
    17:00 +39°C° 0 mm 3 mps 745 mmHg 42%
    18:00 +39°C° 0 mm 3 mps 744 mmHg 44%
    19:00 +38°C° 0 mm 3 mps 745 mmHg 45%
    20:00 +38°C° 0 mm 3 mps 746 mmHg 47%
    21:00 +37°C° 0 mm 3 mps 746 mmHg 48%
    22:00 +36°C° 0.2 mm 4 mps 747 mmHg 51%
    23:00 +35°C° 0.2 mm 4 mps 747 mmHg 54%

    30 May, Wednesday

    Time Temperature Precipitation Wind Pressure Humidity
    00:00 +34°C° 0.2 mm 5 mps 747 mmHg 57%
    01:00 +34°C° 0.1 mm 4 mps 747 mmHg 59%
    02:00 +32°C° 0.1 mm 2 mps 747 mmHg 60%
    03:00 +32°C° 0.1 mm 1 mps 747 mmHg 62%
    04:00 +32°C° 0.2 mm 1 mps 747 mmHg 63%
    05:00 +31°C° 0.2 mm 1 mps 748 mmHg 65%
    06:00 +31°C° 0.2 mm 1 mps 748 mmHg 66%
    07:00 +33°C° 0 mm 1 mps 748 mmHg 61%
    08:00 +34°C° 0 mm 1 mps 749 mmHg 55%
    09:00 +35°C° 0 mm 1 mps 749 mmHg 50%
    10:00 +37°C° 0 mm 1 mps 749 mmHg 46%
    11:00 +39°C° 0 mm 1 mps 749 mmHg 42%
    12:00 +40°C° 0 mm 2 mps 748 mmHg 39%
    13:00 +41°C° 0 mm 2 mps 747 mmHg 37%
    14:00 +41°C° 0 mm 2 mps 747 mmHg 36%
    15:00 +41°C° 0 mm 2 mps 746 mmHg 34%
    16:00 +41°C° 0 mm 2 mps 746 mmHg 36%
    17:00 +41°C° 0 mm 2 mps 746 mmHg 37%
    18:00 +40°C° 0 mm 2 mps 746 mmHg 39%
    19:00 +39°C° 0 mm 3 mps 747 mmHg 41%
    20:00 +38°C° 0 mm 4 mps 747 mmHg 44%
    21:00 +37°C° 0 mm 5 mps 748 mmHg 46%
    22:00 +36°C° 0.4 mm 5 mps 748 mmHg 52%
    23:00 +35°C° 0.4 mm 5 mps 749 mmHg 57%

    31 May, Thursday

    Time Temperature Precipitation Wind Pressure Humidity
    00:00 +34°C° 0.4 mm 5 mps 749 mmHg 62%
    01:00 +34°C° 0 mm 4 mps 749 mmHg 65%
    02:00 +33°C° 0 mm 4 mps 749 mmHg 67%
    03:00 +33°C° 0 mm 4 mps 749 mmHg 70%
    04:00 +33°C° 0.4 mm 3 mps 749 mmHg 72%
    05:00 +33°C° 0.4 mm 3 mps 750 mmHg 74%
    06:00 +33°C° 0.4 mm 3 mps 750 mmHg 76%
    07:00 +34°C° 0.6 mm 3 mps 751 mmHg 70%
    08:00 +35°C° 0.6 mm 4 mps 751 mmHg 65%
    09:00 +36°C° 0.6 mm 4 mps 752 mmHg 60%
    10:00 +37°C° 1.5 mm 4 mps 752 mmHg 56%
    11:00 +38°C° 1.5 mm 4 mps 751 mmHg 53%
    12:00 +40°C° 1.5 mm 4 mps 751 mmHg 49%
    13:00 +38°C° 0.7 mm 4 mps 750 mmHg 50%
    14:00 +38°C° 0.7 mm 4 mps 750 mmHg 52%
    15:00 +39°C° 0.7 mm 5 mps 749 mmHg 53%
    16:00 +37°C° 0.1 mm 5 mps 749 mmHg 55%
    17:00 +37°C° 0.1 mm 5 mps 749 mmHg 57%
    18:00 +36°C° 0.1 mm 4 mps 748 mmHg 58%
    19:00 +35°C° 0.2 mm 4 mps 749 mmHg 62%
    20:00 +35°C° 0.2 mm 5 mps 750 mmHg 65%
    21:00 +34°C° 0.2 mm 5 mps 750 mmHg 68%
    22:00 +33°C° 0.9 mm 5 mps 751 mmHg 71%
    23:00 +33°C° 0.9 mm 5 mps 751 mmHg 75%

    1 June, Friday

    Time Temperature Precipitation Wind Pressure Humidity
    00:00 +33°C° 0.9 mm 5 mps 751 mmHg 78%
    01:00 +32°C° 4.1 mm 4 mps 751 mmHg 80%
    02:00 +32°C° 4.1 mm 4 mps 751 mmHg 81%
    03:00 +30°C° 4.1 mm 3 mps 750 mmHg 83%
    04:00 +30°C° 2.8 mm 3 mps 751 mmHg 81%
    05:00 +30°C° 2.8 mm 3 mps 751 mmHg 80%
    06:00 +30°C° 2.8 mm 2 mps 752 mmHg 79%
    07:00 +33°C° 0.3 mm 3 mps 752 mmHg 73%
    08:00 +34°C° 0.3 mm 3 mps 752 mmHg 68%
    09:00 +35°C° 0.3 mm 3 mps 753 mmHg 62%
    10:00 +36°C° 0 mm 3 mps 752 mmHg 58%
    11:00 +37°C° 0 mm 3 mps 752 mmHg 54%
    12:00 +38°C° 0 mm 3 mps 752 mmHg 50%
    13:00 +38°C° 0 mm 3 mps 751 mmHg 49%
    14:00 +38°C° 0 mm 3 mps 750 mmHg 48%
    15:00 +38°C° 0 mm 3 mps 749 mmHg 48%
    16:00 +37°C° 0.4 mm 3 mps 749 mmHg 52%
    17:00 +36°C° 0.4 mm 4 mps 749 mmHg 57%
    18:00 +36°C° 0.4 mm 4 mps 749 mmHg 61%
    19:00 +35°C° 0.4 mm 4 mps 749 mmHg 65%
    20:00 +34°C° 0.4 mm 4 mps 750 mmHg 68%
    21:00 +33°C° 0.4 mm 4 mps 750 mmHg 71%
    22:00 +33°C° 0 mm 4 mps 750 mmHg 73%
    23:00 +32°C° 0 mm 4 mps 750 mmHg 74%
    Show more